Location: Hamilton
(37.7830°S, 175.2830°E)
Time: 16:07:34
(UTC+12:00)

USA 238 DEB - Visible Passes

Search period start: 23 April 2019 00:00
Search period end: 03 May 2019 00:00
Orbit: 1043 x 1170 km, 63.4° (Epoch: 19 April)

Date Brightness Start Highest point End Pass type
(mag) Time Alt. Az. Time Alt. Az. Time Alt. Az.
23 Apr 6.0 03:06:53 14° S 03:06:53 14° S 03:08:03 10° SSE visible
24 Apr 5.9 04:11:04 11° SSW 04:11:04 11° SSW 04:12:24 10° S visible
25 Apr 6.1 03:27:48 12° S 03:27:48 12° S 03:28:35 10° S visible
29 Apr 6.0 06:03:16 10° S 06:05:21 11° SSE 06:07:25 10° SE visible
01 May 5.8 06:23:12 10° S 06:28:00 19° SE 06:32:42 10° ESE visible
02 May 6.0 05:39:07 10° S 05:42:28 14° SSE 05:45:46 10° ESE visible
